• In Moldova, Republic
  • List of Countries
  • For 7 days
  • Water Temperature
  • Satellite Maps
  • Weather Map
  • Weather Widgets
  • user-avatar
    Login

    Hourly Weather Hobart

    Today, 24 September, Sunday

    Time Temperature Precipitation Wind Pressure Humidity
    00:00 +10°C° 0 mm 5 mps 726 mmHg 87%
    01:00 +9°C° 0 mm 6 mps 725 mmHg 84%
    02:00 +9°C° 0 mm 6 mps 726 mmHg 80%
    03:00 +10°C° 0 mm 6 mps 726 mmHg 76%
    04:00 +10°C° 0 mm 5 mps 726 mmHg 73%
    05:00 +9°C° 0 mm 5 mps 726 mmHg 74%
    06:00 +9°C° 0 mm 5 mps 726 mmHg 75%
    07:00 +10°C° 0 mm 4 mps 727 mmHg 76%
    08:00 +10°C° 0.1 mm 5 mps 727 mmHg 71%
    09:00 +11°C° 0.1 mm 6 mps 727 mmHg 66%
    10:00 +14°C° 0 mm 5 mps 727 mmHg 59%
    11:00 +14°C° 0.1 mm 5 mps 727 mmHg 58%
    12:00 +14°C° 0.1 mm 6 mps 727 mmHg 57%
    13:00 +15°C° 0.1 mm 7 mps 727 mmHg 56%
    14:00 +14°C° 0.1 mm 6 mps 727 mmHg 59%
    15:00 +13°C° 0.1 mm 6 mps 727 mmHg 63%
    16:00 +13°C° 0 mm 5 mps 726 mmHg 67%
    17:00 +12°C° 0.1 mm 5 mps 727 mmHg 72%
    18:00 +11°C° 0.1 mm 4 mps 727 mmHg 78%
    19:00 +10°C° 0.1 mm 3 mps 728 mmHg 83%
    20:00 +9°C° 0.1 mm 3 mps 728 mmHg 86%
    21:00 +9°C° 0.1 mm 3 mps 728 mmHg 89%
    22:00 +8°C° 0.1 mm 3 mps 729 mmHg 92%
    23:00 +8°C° 0.1 mm 3 mps 729 mmHg 91%

    Tomorrow, 25 September, Monday

    Time Temperature Precipitation Wind Pressure Humidity
    00:00 +7°C° 0.1 mm 4 mps 729 mmHg 91%
    01:00 +7°C° 0.1 mm 5 mps 730 mmHg 90%
    02:00 +6°C° 0.1 mm 5 mps 730 mmHg 89%
    03:00 +5°C° 0.1 mm 6 mps 731 mmHg 88%
    04:00 +4°C° 0.1 mm 7 mps 731 mmHg 87%
    05:00 +4°C° 0 mm 7 mps 732 mmHg 86%
    06:00 +4°C° 0 mm 8 mps 732 mmHg 85%
    07:00 +4°C° 0 mm 8 mps 733 mmHg 84%
    08:00 +5°C° 0.3 mm 8 mps 734 mmHg 80%
    09:00 +6°C° 0.3 mm 8 mps 734 mmHg 75%
    10:00 +7°C° 0.3 mm 9 mps 735 mmHg 71%
    11:00 +7°C° 0.1 mm 8 mps 736 mmHg 70%
    12:00 +7°C° 0.1 mm 8 mps 736 mmHg 69%
    13:00 +7°C° 0.1 mm 8 mps 737 mmHg 68%
    14:00 +8°C° 0.1 mm 7 mps 738 mmHg 67%
    15:00 +6°C° 0.1 mm 7 mps 739 mmHg 66%
    16:00 +6°C° 0.1 mm 7 mps 739 mmHg 66%
    17:00 +5°C° 0.1 mm 6 mps 740 mmHg 71%
    18:00 +5°C° 0.1 mm 5 mps 741 mmHg 76%
    19:00 +3°C° 0.1 mm 5 mps 742 mmHg 81%
    20:00 +4°C° 0.1 mm 4 mps 742 mmHg 85%
    21:00 +3°C° 0.1 mm 4 mps 743 mmHg 88%
    22:00 +3°C° 0.1 mm 4 mps 744 mmHg 92%
    23:00 +1°C° 0.1 mm 4 mps 744 mmHg 92%

    Day after tomorrow, 26 September, Tuesday

    Time Temperature Precipitation Wind Pressure Humidity
    00:00 +1°C° 0.1 mm 4 mps 744 mmHg 92%
    01:00 +1°C° 0.1 mm 4 mps 744 mmHg 92%
    02:00 +1°C° 0 mm 4 mps 745 mmHg 93%
    03:00 0°C° 0 mm 4 mps 745 mmHg 93%
    04:00 0°C° 0 mm 4 mps 745 mmHg 93%
    05:00 0°C° 0 mm 4 mps 745 mmHg 91%
    06:00 +1°C° 0 mm 4 mps 746 mmHg 89%
    07:00 +1°C° 0 mm 4 mps 746 mmHg 86%
    08:00 +5°C° 0 mm 4 mps 746 mmHg 75%
    09:00 +7°C° 0 mm 4 mps 746 mmHg 64%
    10:00 +10°C° 0 mm 4 mps 747 mmHg 53%
    11:00 +10°C° 0 mm 4 mps 747 mmHg 52%
    12:00 +11°C° 0 mm 3 mps 746 mmHg 52%
    13:00 +11°C° 0 mm 3 mps 746 mmHg 52%
    14:00 +11°C° 0 mm 3 mps 746 mmHg 52%
    15:00 +11°C° 0 mm 3 mps 746 mmHg 53%
    16:00 +12°C° 0 mm 2 mps 746 mmHg 54%
    17:00 +9°C° 0 mm 2 mps 746 mmHg 61%
    18:00 +7°C° 0 mm 2 mps 747 mmHg 68%
    19:00 +6°C° 0 mm 2 mps 747 mmHg 76%
    20:00 +5°C° 0 mm 2 mps 747 mmHg 80%
    21:00 +4°C° 0 mm 2 mps 747 mmHg 85%
    22:00 +3°C° 0 mm 2 mps 747 mmHg 89%
    23:00 +3°C° 0 mm 2 mps 747 mmHg 91%

    27 September, Wednesday

    Time Temperature Precipitation Wind Pressure Humidity
    00:00 +2°C° 0 mm 2 mps 747 mmHg 93%
    01:00 +1°C° 0 mm 2 mps 746 mmHg 95%
    02:00 +1°C° 0 mm 2 mps 746 mmHg 95%
    03:00 +1°C° 0 mm 2 mps 745 mmHg 95%
    04:00 +2°C° 0 mm 1 mps 745 mmHg 95%
    05:00 +3°C° 0 mm 1 mps 744 mmHg 91%
    06:00 +4°C° 0 mm 1 mps 744 mmHg 86%
    07:00 +4°C° 0 mm 2 mps 744 mmHg 82%
    08:00 +6°C° 0.1 mm 2 mps 743 mmHg 78%
    09:00 +7°C° 0.1 mm 2 mps 742 mmHg 73%
    10:00 +9°C° 0.1 mm 3 mps 742 mmHg 69%
    11:00 +9°C° 0.9 mm 3 mps 740 mmHg 76%
    12:00 +9°C° 0.9 mm 3 mps 739 mmHg 83%
    13:00 +7°C° 0.9 mm 4 mps 738 mmHg 91%
    14:00 +8°C° 0.6 mm 4 mps 736 mmHg 91%
    15:00 +8°C° 0.6 mm 4 mps 735 mmHg 92%
    16:00 +10°C° 0.6 mm 4 mps 733 mmHg 92%
    17:00 +8°C° 0.1 mm 4 mps 733 mmHg 91%
    18:00 +9°C° 0.1 mm 3 mps 732 mmHg 90%
    19:00 +8°C° 0.1 mm 3 mps 731 mmHg 90%
    20:00 +8°C° 0.1 mm 3 mps 731 mmHg 90%
    21:00 +8°C° 0.1 mm 3 mps 731 mmHg 91%
    22:00 +8°C° 0.1 mm 2 mps 730 mmHg 91%
    23:00 +8°C° 0.5 mm 3 mps 730 mmHg 92%

    28 September, Thursday

    Time Temperature Precipitation Wind Pressure Humidity
    00:00 +9°C° 0.5 mm 3 mps 730 mmHg 93%
    01:00 +9°C° 0.5 mm 3 mps 730 mmHg 95%
    02:00 +8°C° 0.1 mm 4 mps 731 mmHg 95%
    03:00 +7°C° 0.1 mm 5 mps 731 mmHg 95%
    04:00 +7°C° 0.1 mm 6 mps 732 mmHg 95%
    05:00 +7°C° 0.1 mm 6 mps 733 mmHg 94%
    06:00 +5°C° 0.1 mm 6 mps 734 mmHg 94%
    07:00 +5°C° 0.1 mm 6 mps 735 mmHg 93%
    08:00 +5°C° 0.1 mm 6 mps 736 mmHg 85%
    09:00 +6°C° 0.1 mm 7 mps 736 mmHg 77%
    10:00 +8°C° 0.1 mm 7 mps 737 mmHg 69%
    11:00 +8°C° 0 mm 7 mps 737 mmHg 68%
    12:00 +9°C° 0 mm 7 mps 737 mmHg 67%
    13:00 +9°C° 0 mm 7 mps 737 mmHg 66%
    14:00 +9°C° 0 mm 6 mps 738 mmHg 65%
    15:00 +9°C° 0 mm 6 mps 738 mmHg 64%
    16:00 +9°C° 0 mm 6 mps 738 mmHg 64%
    17:00 +9°C° 0 mm 6 mps 738 mmHg 68%
    18:00 +8°C° 0 mm 6 mps 739 mmHg 73%
    19:00 +7°C° 0 mm 5 mps 740 mmHg 78%
    20:00 +6°C° 0 mm 5 mps 740 mmHg 81%
    21:00 +6°C° 0 mm 5 mps 740 mmHg 84%
    22:00 +6°C° 0 mm 5 mps 740 mmHg 88%
    23:00 +6°C° 0 mm 4 mps 740 mmHg 88%

    29 September, Friday

    Time Temperature Precipitation Wind Pressure Humidity
    00:00 +5°C° 0 mm 4 mps 740 mmHg 89%
    01:00 +5°C° 0 mm 3 mps 740 mmHg 89%
    02:00 +5°C° 0 mm 3 mps 740 mmHg 90%
    03:00 +5°C° 0 mm 3 mps 740 mmHg 91%
    04:00 +5°C° 0 mm 3 mps 740 mmHg 93%
    05:00 +5°C° 0 mm 3 mps 740 mmHg 90%
    06:00 +6°C° 0 mm 4 mps 740 mmHg 87%
    07:00 +6°C° 0 mm 4 mps 740 mmHg 85%
    08:00 +8°C° 0.1 mm 5 mps 739 mmHg 77%
    09:00 +9°C° 0.1 mm 5 mps 739 mmHg 68%
    10:00 +11°C° 0.1 mm 6 mps 739 mmHg 60%
    11:00 +12°C° 0.1 mm 7 mps 738 mmHg 56%
    12:00 +12°C° 0.1 mm 7 mps 737 mmHg 52%
    13:00 +14°C° 0.1 mm 7 mps 737 mmHg 48%
    14:00 +13°C° 0 mm 8 mps 736 mmHg 50%
    15:00 +12°C° 0 mm 8 mps 736 mmHg 51%
    16:00 +12°C° 0 mm 8 mps 735 mmHg 53%
    17:00 +10°C° 0.1 mm 8 mps 735 mmHg 59%
    18:00 +9°C° 0.1 mm 7 mps 735 mmHg 66%
    19:00 +8°C° 0.1 mm 6 mps 734 mmHg 72%
    20:00 +8°C° 0.1 mm 7 mps 734 mmHg 72%
    21:00 +8°C° 0.1 mm 7 mps 734 mmHg 71%
    22:00 +7°C° 0.1 mm 8 mps 733 mmHg 70%
    23:00 +7°C° 0.6 mm 8 mps 733 mmHg 74%
    Show more